Weather Service Report


214 
ASUS41 KPHI 061912
RWRPHI

REGIONAL WEATHER ROUNDUP
NATIONAL WEATHER SERVICE MOUNT HOLLY NJ
300 PM EDT FRI MAY 06 2016

NOTE:  "FAIR" INDICATES FEW OR NO CLOUDS BELOW 12,000 FEET WITH NO
SIGNIFICANT WEATHER AND/OR OBSTRUCTIONS TO VISIBILITY.

 * = STATION DOES NOT REPORT PRECIPITATION (E.G. RAIN, SNOW, ETC.) 
        OR FOG.

NJZ015>026-062000-
SOUTHERN NEW JERSEY
  
CITY           SKY/WX    TMP DP  RH WIND       PRES   REMARKS
POMONA         CLOUDY    54  53  97 SW8       29.60R FOG              
WILDWOOD*      CLOUDY    54  48  82 SW10      29.66R                  
MILLVILLE      CLOUDY    53  48  83 CALM      29.62R                  
WRIGHTSTOWN    CLOUDY    50  50  98 NE22G29   29.59F FOG              
MOUNT HOLLY    CLOUDY    51  49  92 E8G21     29.61F FOG              
TRENTON        LGT RAIN  50  48  93 E17G25    29.65R FOG              

$$
NJZ001>014-062000-
NORTHERN NEW JERSEY
  
CITY           SKY/WX    TMP DP  RH WIND       PRES   REMARKS
SUSSEX         CLOUDY    52  49  89 NE8       29.73S FOG              
ANDOVER*         N/A     51  49  92 VRB5      29.72R                  
MORRISTOWN     LGT RAIN  50  50 100 NE9G17    29.72F FOG              
NEWARK         CLOUDY    53  50  89 E10G23    29.71F                  
TETERBORO      CLOUDY    53  47  79 E9        29.72S FOG              
CALDWELL       LGT RAIN  52  49  89 E14       29.73S FOG              
SOMERVILLE     LGT RAIN  51  48  89 VRB6      29.68S FOG              
ALLAIRE*       CLOUDY    48  48 100 E18G31    29.69S FOG              
TOMS RIVER*    CLOUDY    54  48  82 E14G24    29.65S                  

$$
PAZ043-044-047-054-055-060>062-066>071-062000-
EASTERN PENNSYLVANIA
  
CITY           SKY/WX    TMP DP  RH WIND       PRES   REMARKS
PHILADELPHIA   DRIZZLE   52  48  86 N14       29.64F FOG              
NORTH PHILA    LGT RAIN  51  32  48 NE16      29.65F                  
BLUE BELL*     CLOUDY    48  46  93 NE8       29.65S                  
DOYLESTOWN     LGT RAIN  48  48 100 VRB6G20   29.65S FOG              
QUAKERTOWN*    CLOUDY    50  48  93 E9        29.67S                  
PERKASIE*      CLOUDY    50  50 100 NE15G21   29.67S FOG              
POTTSTOWN      LGT RAIN  50  50 100 NE9       29.67S FOG              
LANCASTER      CLOUDY    52  49  89 NE8       29.65S                  
COATESVILLE    HVY RAIN  52  52 100 MISG      29.65F                  
READING        RAIN      51  49  92 VRB6      29.66F FOG              
ALLENTOWN      CLOUDY    54  50  86 NE16      29.67F                  
MOUNT POCONO   LGT RAIN  46  45  96 E9        29.70S FOG              
HAZLETON       DRIZZLE   48  46  93 N3        29.72S                  
LEHIGHTON      CLOUDY    54  46  76 E6        29.70S                  
WILKES BARRE   CLOUDY    52  49  89 NE10      29.71S FOG              

$$
DEZALL-MDZ008-012-015-019-020-062000-
DELAWARE AND EASTERN MARYLAND
  
CITY           SKY/WX    TMP DP  RH WIND       PRES   REMARKS
WILMINGTON     CLOUDY    53  47  79 NE17      29.64S                  
DOVER          LGT RAIN  52  52 100 SW3       29.63S FOG              
GEORGETOWN     CLOUDY    53  47  79 SW5       29.66R                  
EASTON         DRIZZLE  N/A N/A N/A W7        29.69S                  
ABERDEEN       LGT RAIN  54  50  87 CALM      29.68R FOG              
PATUXENT       LGT RAIN  51  46  83 W6        29.67F                  
OCEAN CITY     LGT RAIN  51  49  92 S8        29.67S                  
WALLOPS ISLAND LGT RAIN  52  50  93 S9        29.68S FOG              
CAMBRIDGE        N/A     48  46  93 W5        29.66S                  
SALISBURY      HVY RAIN  51  49  92 SW7       29.66S FOG              

$$
PAZ001-021-NYZ056-072-MDZ011-DCZ001-062000-
OTHER NEARBY LOCATIONS
  
CITY           SKY/WX    TMP DP  RH WIND       PRES   REMARKS
HARRISBURG     RAIN      53  49  86 N8        29.66F                  
STATE COLLEGE  LGT RAIN  50  46  87 NE6       29.73                   
WILLIAMSPORT   CLOUDY    54  47  77 NW6       29.72F                  
BINGHAMTON     LGT RAIN  48  46  93 NE13      29.77S                  
NEW YORK CITY  CLOUDY    52  47  83 MISG      29.76R                  
BALTIMORE      LGT RAIN  51  48  89 CALM      29.65S FOG              
WASHINGTON DC  LGT RAIN  53  49  86 VRB7      29.68F FOG              

$$
  

Return to Home page


Western Regional Climate Center, wrcc@dri.edu